Weather History for Central Park, NY

Change the Weather History Date:

Thursday, March 13, 2014

  Actual Average Record
Temperature  
Mean Temperature 26 °F 41 °F  
Max Temperature 32 °F 49 °F 85 °F (1990)
Min Temperature 19 °F 34 °F 6 °F (1888)
Degree Days  
Heating Degree Days 40 24  
Month to date heating degree days 330  
Since 1 July heating degree days 3852  
Cooling Degree Days 0 0  
Month to date cooling degree days 0  
Year to date cooling degree days 0  
Moisture  
Dew Point 3 °F    
Average Humidity 42    
Maximum Humidity 64    
Minimum Humidity 27    
Precipitation  
Precipitation 0.00 in 0.12 in 3.86 in (2010)
Month to date precipitation 1.67  
Year to date precipitation 8.41  
Snow  
Snow 0.00 in 0.20 in 10.20 in (1993)
Month to date snowfall 2.4  
Since 1 July snowfall 23.7  
Snow Depth -    
Sea Level Pressure  
Sea Level Pressure 29.63 in    
Wind  
Wind Speed 14 mph (NW)    
Max Wind Speed 20 mph    
Max Gust Speed 36 mph    
Visibility 10 miles    
Events      
T = Trace of Precipitation, MM = Missing Value Source: NWS Daily Summary

Daily Weather History Graph

Daily Weather History Graph

Search for Another Location

Airport:

Trip Planner

Search our weather history database for the weather conditions in past years. The results will help you decide how hot, cold, wet, or windy it might be!

Date:

Astronomy

Mar. 13, 2014 Rise Set
Actual Time 7:10 AM EDT 7:00 PM EDT
Civil Twilight 6:43 AM EDT 7:27 PM EDT
Nautical Twilight 6:11 AM EDT 7:59 PM EDT
Astronomical Twilight 5:39 AM EDT 8:31 PM EDT
Moon 4:23 PM EDT (3/13) 5:17 AM EDT (3/13)
Length of Visible Light 12h 44m
Length of Day
11h 49m
Waxing Gibbous, 91% of the Moon is Illuminated
Mar 13
Waxing Gibbous
Mar 16
Full
Mar 23
Last Quarter
Mar 30
New
Apr 7
First Quarter

Hourly Weather History & Observations

Time (EDT) Temp. Windchill Dew Point Humidity Pressure Visibility Wind Dir Wind Speed Gust Speed Precip Events Conditions
12:51 AM 32.0 °F 23.6 °F 21.0 °F 64% 29.20 in 10.0 mi NW 10.4 mph 25.3 mph N/A   Overcast
1:32 AM 30.9 °F 21.7 °F 18.0 °F 59% 29.23 in 10.0 mi NW 11.5 mph 32.2 mph N/A   Overcast
1:51 AM 28.0 °F 17.0 °F 16.0 °F 61% 29.23 in 10.0 mi WNW 13.8 mph 31.1 mph N/A   Overcast
2:51 AM 25.0 °F 13.1 °F 10.0 °F 53% 29.27 in 10.0 mi WNW 13.8 mph 27.6 mph N/A   Overcast
3:51 AM 23.0 °F 8.3 °F 7.0 °F 50% 29.29 in 10.0 mi NW 19.6 mph 35.7 mph N/A   Overcast
4:51 AM 21.0 °F 9.3 °F 6.1 °F 53% 29.37 in 10.0 mi WNW 11.5 mph 29.9 mph N/A   Overcast
5:51 AM 19.9 °F 5.2 °F 3.0 °F 48% 29.42 in 10.0 mi NW 17.3 mph 32.2 mph N/A   Overcast
6:51 AM 19.0 °F 4.0 °F 1.9 °F 47% 29.46 in 10.0 mi NW 17.3 mph 25.3 mph N/A   Overcast
7:51 AM 19.0 °F - 1.9 °F 47% 29.53 in 10.0 mi North - - N/A   Scattered Clouds
8:51 AM 19.0 °F 4.5 °F 1.9 °F 47% 29.56 in 10.0 mi NW 16.1 mph 28.8 mph N/A   Overcast
9:51 AM 19.9 °F 6.2 °F 1.0 °F 44% 29.59 in 10.0 mi NW 15.0 mph 35.7 mph N/A   Overcast
10:51 AM 19.9 °F 7.9 °F -0.0 °F 42% 29.62 in 10.0 mi NW 11.5 mph 35.7 mph N/A   Overcast
11:51 AM 21.9 °F 9.2 °F 1.9 °F 42% 29.64 in 10.0 mi NW 13.8 mph 28.8 mph N/A   Mostly Cloudy
12:51 PM 23.0 °F 9.6 °F 1.0 °F 39% 29.67 in 10.0 mi NW 16.1 mph 28.8 mph N/A   Mostly Cloudy
1:51 PM 26.1 °F 15.0 °F 3.9 °F 39% 29.68 in 10.0 mi WNW 12.7 mph 23.0 mph N/A   Scattered Clouds
2:51 PM 27.0 °F 16.1 °F -0.9 °F 30% 29.70 in 10.0 mi NW 12.7 mph 26.5 mph N/A   Partly Cloudy
3:51 PM 27.0 °F 15.6 °F -2.9 °F 27% 29.73 in 10.0 mi NW 13.8 mph 32.2 mph N/A   Clear
4:51 PM 27.0 °F 15.6 °F -0.9 °F 30% 29.76 in 10.0 mi WNW 13.8 mph 27.6 mph N/A   Clear
5:51 PM 26.1 °F 12.7 °F -2.9 °F 28% 29.81 in 10.0 mi NW 18.4 mph 32.2 mph N/A   Clear
6:51 PM 25.0 °F 13.1 °F -4.0 °F 28% 29.87 in 10.0 mi NW 13.8 mph 23.0 mph N/A   Clear
7:51 PM 24.1 °F 11.5 °F -4.0 °F 29% 29.93 in 10.0 mi NW 15.0 mph 29.9 mph N/A   Clear
8:51 PM 24.1 °F 12.5 °F -5.1 °F 28% 29.98 in 10.0 mi NW 12.7 mph 29.9 mph N/A   Clear
9:51 PM 23.0 °F 11.1 °F -4.0 °F 31% 30.02 in 10.0 mi NW 12.7 mph 25.3 mph N/A   Clear
10:51 PM 21.9 °F 10.4 °F -2.0 °F 35% 30.06 in 10.0 mi NW 11.5 mph 21.9 mph N/A   Clear
11:51 PM 21.9 °F 8.7 °F -0.9 °F 37% 30.09 in 10.0 mi NW 15.0 mph 19.6 mph N/A   Clear